MONITOR-3 (RS58S)

Last updated on Sun Jun 21 2026 00:03:20 GMT+0000 (Coordinated Universal Time)

1 57180U 23091Q 26171.40744497 .00008680 00000+0 32073-3 0 9991 2 57180 97.5078 234.8773 0013041 90.9319 269.3415 15.27895465164781
UTC large
Height (km)
Speed (km/s)
/
Latitude / Longitude
Inclination (degrees)
Orbital Period (minutes)
Azimuth
Elevation
Range (km)
Doppler Factor

Next 0 passes for location: London (51.5072 / 0.1276)

No passes found over London.
MONITOR-3 (RS58S)